Location: Unspecified
(40.7945°N, 111.1337°W)
Time: 23:03:42
(UTC-06:00)

Vanguard 1 - Pass Details

Date: 29 June 2019
Orbit: 655 x 3829 km, 34.2° (Epoch: 20 August)

Event Time Altitude Azimuth Distance (km) Brightness Sun altitude
Rises 06:25:34 0° 276° (W) 7,296 14.0 4.0°
Reaches altitude 10° 06:31:13 10° 273° (W) 5,852 13.5 5.0°
Maximum altitude 06:46:27 52° 204° (SSW) 2,275 11.8 7.6°
Drops below altitude 10° 06:54:46 10° 130° (SE) 3,309 13.2 9.0°
Sets 06:57:04 0° 124° (SE) 4,001 13.7 9.4°
